EW2345 Weather Reports


Display with metric or nautical units.
time (UTC)temp
F
wind
direction
speed
MPH
gust
MPH
rain 1hr
in
rain 24hr
in
rain mn
in
humidity
%
barometer
mb
20260906112502 85 234 6.0 13.0 0.00 0.00 0.00 51 1020.0
20260906112001 86 242 7.0 14.0 0.00 0.00 0.00 52 1020.0
20260906111503 85 246 4.0 14.0 0.00 0.00 0.00 55 1019.9
20260906111003 85 244 6.0 12.0 0.00 0.00 0.00 54 1019.9
20260906110503 84 258 3.0 10.0 0.00 0.00 0.00 53 1019.9
20260906105502 84 269 5.0 8.0 0.00 0.00 0.00 54 1019.9
20260906105003 85 286 4.0 10.0 0.00 0.00 0.00 55 1019.9
20260906104503 84 233 7.0 12.0 0.00 0.00 0.00 55 1019.9
20260906103501 83 232 4.0 8.0 0.00 0.00 0.00 57 1020.1
20260906103004 82 235 4.0 7.0 0.00 0.00 0.00 58 1020.2
20260906102503 82 256 3.0 7.0 0.00 0.00 0.00 58 1020.3
20260906102004 82 227 2.0 3.0 0.00 0.00 0.00 60 1020.3
20260906100503 81 227 2.0 6.0 0.00 0.00 0.00 60 1020.1
20260906095002 79 293 1.0 5.0 0.00 0.00 0.00 59 1020.2
20260906094504 80 289 3.0 6.0 0.00 0.00 0.00 58 1020.3
20260906094003 79 231 0.0 1.0 0.00 0.00 0.00 60 1020.4
20260906093503 79 231 1.0 2.0 0.00 0.00 0.00 63 1020.4
20260906093003 78 221 0.0 0.0 0.00 0.00 0.00 63 1020.4
20260906092503 78 221 1.0 3.0 0.00 0.00 0.00 64 1020.3
20260906092003 77 221 2.0 5.0 0.00 0.00 0.00 65 1020.3
20260906091502 77 198 3.0 6.0 0.00 0.00 0.00 66 1020.3
20260906091003 77 34 2.0 5.0 0.00 0.00 0.00 66 1020.2
20260906090502 76 34 0.0 0.0 0.00 0.00 0.00 66 1020.2
20260906090003 75 34 0.0 0.0 0.00 0.00 0.00 67 1020.1
20260906085503 74 34 0.0 0.0 0.00 0.00 0.00 69 1020.1
20260906085003 73 34 0.0 0.0 0.00 0.00 0.00 69 1020.2
20260906084502 73 34 0.0 0.0 0.00 0.00 0.00 72 1020.1
20260906084002 72 34 0.0 0.0 0.00 0.00 0.00 73 1020.1
20260906083502 71 34 0.0 0.0 0.00 0.00 0.00 76 1020.1
20260906082502 70 34 0.0 0.0 0.00 0.00 0.00 78 1020.0
20260906082002 70 34 0.0 0.0 0.00 0.00 0.00 79 1020.0
20260906081503 69 34 0.0 0.0 0.00 0.00 0.00 80 1020.0
20260906081002 69 34 0.0 0.0 0.00 0.00 0.00 81 1019.9
20260906080503 68 34 0.0 0.0 0.00 0.00 0.00 81 1019.9
20260906075502 68 34 0.0 0.0 0.00 0.00 0.00 81 1019.9
20260906075004 68 34 0.0 0.0 0.00 0.00 0.00 81 1019.9
20260906074503 68 34 0.0 0.0 0.00 0.00 0.00 82 1019.9
20260906073502 67 34 0.0 0.0 0.00 0.00 0.00 83 1019.9
20260906073003 66 34 0.0 0.0 0.00 0.00 0.00 84 1019.9
20260906072503 66 34 0.0 0.0 0.00 0.00 0.00 86 1019.8
20260906071503 65 34 0.0 0.0 0.00 0.00 0.00 87 1019.6
20260906071003 65 34 0.0 0.0 0.00 0.00 0.00 88 1019.6
20260906070502 64 34 0.0 0.0 0.00 0.00 0.00 88 1019.6
20260906070004 64 34 0.0 0.0 0.00 0.00 0.00 88 1019.5
20260906065503 64 34 0.0 0.0 0.00 0.00 0.00 88 1019.5
20260906064502 64 34 0.0 0.0 0.00 0.00 0.00 87 1019.4
20260906063503 64 34 0.0 0.0 0.00 0.00 0.00 87 1019.4
20260906063004 64 34 1.0 3.0 0.00 0.00 0.00 87 1019.3
20260906062003 64 34 0.0 0.0 0.00 0.00 0.00 87 1019.2
20260906061502 64 34 0.0 0.0 0.00 0.00 0.00 86 1019.2
20260906061002 64 34 0.0 0.0 0.00 0.00 0.00 86 1019.2
20260906060503 64 34 0.0 0.0 0.00 0.00 0.00 86 1019.2
20260906060004 64 34 0.0 0.0 0.00 0.00 0.00 86 1019.2
20260906055503 64 34 0.0 0.0 0.00 0.00 0.00 86 1019.1
20260906055003 64 34 0.0 3.0 0.00 0.00 0.00 86 1019.1
20260906054503 64 34 0.0 0.0 0.00 0.00 0.00 86 1019.1
20260906054003 64 34 2.0 3.0 0.00 0.00 0.00 86 1019.0
20260906053503 64 34 0.0 0.0 0.00 0.00 0.00 86 1019.0
20260906052001 64 34 0.0 0.0 0.00 0.00 0.00 86 1018.8
20260906051503 64 34 0.0 0.0 0.00 0.00 0.00 86 1018.7
20260906051002 64 34 0.0 0.0 0.00 0.00 0.00 86 1018.6
20260906050503 64 34 0.0 0.0 0.00 0.00 0.00 86 1018.6
20260906050004 64 34 0.0 3.0 0.00 0.00 0.00 86 1018.5
20260906045503 64 34 2.0 3.0 0.00 0.00 0.00 86 1018.5
20260906045003 64 34 2.0 5.0 0.00 0.00 0.00 86 1018.5
20260906044503 64 34 1.0 5.0 0.00 0.00 0.00 86 1018.6
20260906044003 64 34 0.0 2.0 0.00 0.00 0.00 86 1018.6
20260906043503 64 34 0.0 2.0 0.00 0.00 0.00 86 1018.6
20260906043004 64 34 0.0 0.0 0.00 0.00 0.00 86 1018.7
20260906042503 64 34 0.0 0.0 0.00 0.00 0.00 86 1018.7
20260906042003 65 34 0.0 0.0 0.00 0.00 0.00 86 1018.6
20260906041501 65 34 0.0 0.0 0.00 0.00 0.00 86 1018.6
20260906041003 65 34 0.0 0.0 0.00 0.00 0.00 86 1018.6
20260906040003 65 34 0.0 0.0 0.00 0.00 0.00 85 1018.6
20260906035503 65 34 0.0 0.0 0.00 0.00 0.00 85 1018.6
20260906035003 65 34 0.0 1.0 0.00 0.00 0.00 85 1018.5
20260906034503 65 34 0.0 1.0 0.00 0.00 0.00 85 1018.5
20260906034002 65 34 0.0 1.0 0.00 0.00 0.00 85 1018.5
20260906033003 65 33 0.0 0.0 0.00 0.00 0.00 84 1018.5
20260906032503 65 33 0.0 0.0 0.00 0.00 0.00 84 1018.5
20260906031503 66 33 2.0 5.0 0.00 0.00 0.00 84 1018.5
20260906031002 66 34 4.0 6.0 0.00 0.00 0.00 84 1018.5
20260906030503 66 37 1.0 5.0 0.00 0.00 0.00 84 1018.5
20260906030004 66 34 0.0 0.0 0.00 0.00 0.00 84 1018.4
20260906025502 66 34 1.0 5.0 0.00 0.00 0.00 84 1018.4
20260906025003 66 34 5.0 7.0 0.00 0.00 0.00 84 1018.4
20260906024503 66 36 2.0 6.0 0.00 0.00 0.00 84 1018.4
20260906024003 66 36 2.0 5.0 0.00 0.00 0.00 83 1018.5
20260906023503 67 36 0.0 2.0 0.00 0.00 0.00 83 1018.6
20260906023004 67 36 0.0 0.0 0.00 0.00 0.00 83 1018.7
20260906022503 67 36 0.0 0.0 0.00 0.00 0.00 82 1018.6
20260906022003 67 36 0.0 0.0 0.00 0.00 0.00 82 1018.7
20260906021503 67 36 0.0 0.0 0.00 0.00 0.00 82 1018.7
20260906020502 67 36 0.0 0.0 0.00 0.00 0.00 82 1018.7
20260906020004 67 36 0.0 0.0 0.00 0.00 0.00 82 1018.8
20260906015502 67 36 0.0 0.0 0.00 0.00 0.00 82 1018.7
20260906014503 68 35 0.0 0.0 0.00 0.00 0.00 81 1018.7
20260906014002 68 35 0.0 0.0 0.00 0.00 0.00 81 1018.7
20260906013003 68 35 0.0 0.0 0.00 0.00 0.00 80 1018.8
20260906012503 68 35 0.0 0.0 0.00 0.00 0.00 80 1018.8
20260906012003 68 35 0.0 0.0 0.00 0.00 0.00 80 1019.0
20260906011501 69 35 0.0 0.0 0.00 0.00 0.00 79 1018.9
20260906011003 69 35 0.0 0.0 0.00 0.00 0.00 79 1019.0
20260906010503 69 35 0.0 0.0 0.00 0.00 0.00 79 1019.0
20260906010003 69 35 0.0 0.0 0.00 0.00 0.00 79 1019.2
20260906005503 69 35 0.0 0.0 0.00 0.00 0.00 78 1019.1
20260906005003 69 35 0.0 0.0 0.00 0.00 0.00 78 1019.1
20260906004004 69 35 0.0 0.0 0.00 0.00 0.00 78 1019.1
20260906003501 69 35 0.0 0.0 0.00 0.00 0.00 78 1019.1
20260906003003 69 35 0.0 2.0 0.00 0.00 0.00 78 1019.1
20260906002502 69 35 1.0 5.0 0.00 0.00 0.00 78 1019.1
20260906002002 70 35 0.0 6.0 0.00 0.00 0.00 77 1019.1
20260906001503 70 34 2.0 5.0 0.00 0.00 0.00 76 1019.2
20260906001003 70 34 0.0 5.0 0.00 0.00 0.00 76 1019.2
20260906000503 70 34 0.0 0.0 0.00 0.00 0.00 76 1019.2
20260906000004 70 34 0.0 0.0 0.00 0.00 0.00 76 1019.2
20260905235501 71 34 0.0 0.0 0.00 0.00 0.00 76 1019.1
20260905235003 71 34 0.0 0.0 0.00 0.00 0.00 76 1019.1
20260905234503 71 34 0.0 0.0 0.00 0.00 0.00 76 1019.1
20260905234003 71 34 0.0 0.0 0.00 0.00 0.00 75 1019.0
20260905233503 71 34 0.0 0.0 0.00 0.00 0.00 75 1019.0
20260905233004 71 34 0.0 0.0 0.00 0.00 0.00 75 1019.0
20260905232504 71 34 0.0 0.0 0.00 0.00 0.00 75 1018.9
20260905232003 71 34 0.0 3.0 0.00 0.00 0.00 75 1019.0
20260905231502 71 34 5.0 5.0 0.00 0.00 0.00 75 1018.9
20260905231003 72 34 0.0 5.0 0.00 0.00 0.00 75 1019.0
20260905230504 72 34 0.0 0.0 0.00 0.00 0.00 74 1019.0
20260905230002 72 34 1.0 5.0 0.00 0.00 0.00 73 1019.0
20260905225503 72 34 0.0 2.0 0.00 0.00 0.00 73 1018.9
20260905225003 73 34 1.0 3.0 0.00 0.00 0.00 72 1018.9
20260905224503 73 34 2.0 3.0 0.00 0.00 0.00 72 1018.8
20260905224003 73 34 0.0 3.0 0.00 0.00 0.00 71 1018.8
20260905223503 73 34 0.0 2.0 0.00 0.00 0.00 71 1018.8
20260905223002 73 34 0.0 0.0 0.00 0.00 0.00 71 1018.8
20260905222503 74 34 0.0 0.0 0.00 0.00 0.00 70 1018.7
20260905222003 74 34 0.0 0.0 0.00 0.00 0.00 70 1018.9
20260905221003 74 34 0.0 0.0 0.00 0.00 0.00 69 1018.8
20260905220503 74 34 0.0 0.0 0.00 0.00 0.00 69 1018.9
20260905220003 75 34 0.0 0.0 0.00 0.00 0.00 69 1018.8
20260905215503 75 34 0.0 0.0 0.00 0.00 0.00 69 1018.8
20260905215002 75 34 0.0 0.0 0.00 0.00 0.00 69 1018.8
20260905214503 75 34 0.0 0.0 0.00 0.00 0.00 68 1018.8
20260905213503 75 34 0.0 0.0 0.00 0.00 0.00 68 1018.8
20260905213004 76 34 0.0 0.0 0.00 0.00 0.00 68 1018.8
20260905212503 76 34 0.0 0.0 0.00 0.00 0.00 67 1018.7
20260905212002 76 34 0.0 0.0 0.00 0.00 0.00 67 1018.7
20260905211503 76 34 1.0 5.0 0.00 0.00 0.00 66 1018.6
20260905211003 76 34 1.0 2.0 0.00 0.00 0.00 66 1018.6
20260905210503 77 34 1.0 5.0 0.00 0.00 0.00 65 1018.7
20260905210004 77 35 0.0 2.0 0.00 0.00 0.00 64 1018.7
20260905205003 77 35 1.0 2.0 0.00 0.00 0.00 64 1018.6
20260905204503 77 35 0.0 1.0 0.00 0.00 0.00 64 1018.5
20260905204003 78 35 0.0 2.0 0.00 0.00 0.00 64 1018.4
20260905203503 78 35 1.0 2.0 0.00 0.00 0.00 64 1018.5
20260905203004 78 35 0.0 1.0 0.00 0.00 0.00 64 1018.4
20260905202503 78 35 2.0 6.0 0.00 0.00 0.00 64 1018.2
20260905202003 78 34 5.0 7.0 0.00 0.00 0.00 64 1018.2
20260905201503 78 38 4.0 8.0 0.00 0.00 0.00 64 1018.1
20260905201003 79 43 2.0 6.0 0.00 0.00 0.00 64 1018.2
20260905200502 79 355 0.0 1.0 0.00 0.00 0.00 64 1018.1
20260905200004 80 355 1.0 3.0 0.00 0.00 0.00 64 1017.9
20260905195503 80 252 2.0 5.0 0.00 0.00 0.00 62 1017.8
20260905195004 81 219 1.0 3.0 0.00 0.00 0.00 61 1017.8
20260905194003 82 219 0.0 0.0 0.00 0.00 0.00 59 1017.6
20260905193503 82 219 0.0 0.0 0.00 0.00 0.00 59 1017.5
20260905193004 82 219 0.0 5.0 0.00 0.00 0.00 60 1017.5
20260905192503 82 219 1.0 6.0 0.00 0.00 0.00 60 1017.4
20260905192003 83 219 3.0 5.0 0.00 0.00 0.00 59 1017.4
20260905191503 83 219 0.0 0.0 0.00 0.00 0.00 60 1017.4
20260905191003 83 219 0.0 0.0 0.00 0.00 0.00 59 1017.4
20260905190503 84 219 0.0 0.0 0.00 0.00 0.00 59 1017.4
20260905185504 84 219 0.0 3.0 0.00 0.00 0.00 56 1017.5
20260905185004 85 219 1.0 5.0 0.00 0.00 0.00 56 1017.5
20260905184503 85 219 1.0 3.0 0.00 0.00 0.00 56 1017.6
20260905184003 85 219 1.0 3.0 0.00 0.00 0.00 57 1017.7
20260905183503 85 219 2.0 5.0 0.00 0.00 0.00 57 1017.8
20260905183004 86 219 2.0 5.0 0.00 0.00 0.00 57 1017.8
20260905182002 86 219 0.0 1.0 0.00 0.00 0.00 56 1018.0
20260905181503 86 219 0.0 0.0 0.00 0.00 0.00 57 1018.0
20260905181004 86 219 0.0 0.0 0.00 0.00 0.00 56 1017.9
20260905180502 86 219 0.0 0.0 0.00 0.00 0.00 56 1017.9
20260905180004 86 219 0.0 0.0 0.00 0.00 0.00 55 1017.9
20260905175504 87 219 1.0 2.0 0.00 0.00 0.00 56 1017.8
20260905175003 87 219 1.0 3.0 0.00 0.00 0.00 56 1017.7
20260905174503 86 219 0.0 2.0 0.00 0.00 0.00 56 1017.7
20260905174003 86 219 0.0 2.0 0.00 0.00 0.00 56 1017.7
20260905173503 86 219 0.0 2.0 0.00 0.00 0.00 56 1017.6
20260905173004 86 219 3.0 7.0 0.00 0.00 0.00 55 1017.6
20260905172503 86 218 3.0 7.0 0.00 0.00 0.00 55 1017.5
20260905172003 87 218 2.0 6.0 0.00 0.00 0.00 56 1017.5
20260905171503 87 218 4.0 7.0 0.00 0.00 0.00 57 1017.4
20260905170503 87 217 5.0 12.0 0.00 0.00 0.00 54 1017.4
20260905170004 88 219 6.0 9.0 0.00 0.00 0.00 54 1017.4
20260905165503 87 223 6.0 9.0 0.00 0.00 0.00 56 1017.4
20260905165001 87 245 5.0 8.0 0.00 0.00 0.00 55 1017.4
20260905164503 87 201 6.0 9.0 0.00 0.00 0.00 57 1017.5
20260905163503 86 223 6.0 9.0 0.00 0.00 0.00 56 1017.4
20260905163004 86 253 3.0 7.0 0.00 0.00 0.00 55 1017.2
20260905162503 86 233 3.0 8.0 0.00 0.00 0.00 55 1017.2
20260905161503 87 247 2.0 7.0 0.00 0.00 0.00 54 1017.1
20260905161003 87 233 5.0 12.0 0.00 0.00 0.00 54 1017.2
20260905160503 87 236 3.0 10.0 0.00 0.00 0.00 52 1017.1
20260905160004 88 253 5.0 12.0 0.00 0.00 0.00 51 1017.1
20260905155001 90 234 6.0 14.0 0.00 0.00 0.00 49 1017.2
20260905154503 90 231 9.0 15.0 0.00 0.00 0.00 49 1017.1
20260905153503 91 244 10.0 16.0 0.00 0.00 0.00 47 1016.8
20260905153003 92 234 9.0 14.0 0.00 0.00 0.00 47 1016.9
20260905152503 92 233 9.0 16.0 0.00 0.00 0.00 47 1016.9
20260905152003 92 243 10.0 18.0 0.00 0.00 0.00 47 1016.8
20260905151502 91 233 12.0 20.0 0.00 0.00 0.00 47 1016.7
20260905150503 91 228 10.0 16.0 0.00 0.00 0.00 46 1016.7
20260905150004 91 237 6.0 13.0 0.00 0.00 0.00 47 1016.8
20260905145503 91 239 9.0 20.0 0.00 0.00 0.00 45 1016.8
20260905143504 92 223 7.0 14.0 0.00 0.00 0.00 46 1016.8
20260905143003 92 235 8.0 16.0 0.00 0.00 0.00 45 1016.8
20260905142502 92 238 10.0 16.0 0.00 0.00 0.00 44 1016.7
20260905141002 92 243 6.0 12.0 0.00 0.00 0.00 46 1016.8
20260905140503 93 284 5.0 9.0 0.00 0.00 0.00 44 1016.8
20260905140005 93 250 6.0 12.0 0.00 0.00 0.00 42 1016.9
20260905135503 93 245 9.0 15.0 0.00 0.00 0.00 43 1016.8
20260905135003 93 238 5.0 13.0 0.00 0.00 0.00 42 1016.8
20260905134503 94 263 6.0 12.0 0.00 0.00 0.00 41 1016.8
20260905133503 95 252 7.0 12.0 0.00 0.00 0.00 40 1016.8
20260905133004 96 242 6.0 12.0 0.00 0.00 0.00 40 1016.8
20260905132503 95 264 7.0 12.0 0.00 0.00 0.00 41 1016.8
20260905132001 95 254 6.0 12.0 0.00 0.00 0.00 41 1016.8
20260905131503 95 254 6.0 12.0 0.00 0.00 0.00 41 1016.8
20260905131003 95 243 10.0 20.0 0.00 0.00 0.00 40 1016.8
20260905130004 95 249 6.0 12.0 0.00 0.00 0.00 40 1016.8
20260905125503 95 284 6.0 12.0 0.00 0.00 0.00 40 1016.8
20260905125003 95 250 6.0 14.0 0.00 0.00 0.00 40 1016.9
20260905124502 94 246 9.0 14.0 0.00 0.00 0.00 41 1016.8
20260905124003 94 245 10.0 15.0 0.00 0.00 0.00 40 1016.8
20260905123503 94 240 8.0 13.0 0.00 0.00 0.00 40 1016.8
20260905123004 93 267 4.0 9.0 0.00 0.00 0.00 41 1016.8
20260905122502 94 251 5.0 12.0 0.00 0.00 0.00 41 1016.8
20260905122002 94 256 5.0 13.0 0.00 0.00 0.00 38 1016.8
20260905121502 94 257 6.0 9.0 0.00 0.00 0.00 39 1016.8
20260905121003 94 244 4.0 8.0 0.00 0.00 0.00 39 1016.8
20260905115003 93 254 5.0 8.0 0.00 0.00 0.00 41 1017.1
20260905114003 93 250 6.0 12.0 0.00 0.00 0.00 38 1017.3
20260905113504 92 315 1.0 6.0 0.00 0.00 0.00 40 1017.3
20260905113006 92 329 2.0 6.0 0.00 0.00 0.00 43 1017.4